Weather History for Montgomery, NY

Change the Weather History Date:

Tuesday, October 23, 2012

  Actual Average (KPOU) Record (KPOU)
Temperature  
Mean Temperature 48 °F 48 °F  
Max Temperature 54 °F 61 °F 78 °F (1979)
Min Temperature 43 °F 37 °F 22 °F (1982)
Degree Days  
Heating Degree Days 16 16  
Month to date heating degree days 295  
Since 1 July heating degree days 435  
Cooling Degree Days 0 0  
Month to date cooling degree days 0  
Year to date cooling degree days 668  
Moisture  
Dew Point 48 °F    
Average Humidity 90    
Maximum Humidity 100    
Minimum Humidity 80    
Precipitation  
Precipitation 0.33 in 0.15 in 2.57 in (1990)
Month to date precipitation 3.41  
Year to date precipitation 38.47  
Sea Level Pressure  
Sea Level Pressure 30.10 in    
Wind  
Wind Speed 1 mph (North)    
Max Wind Speed 6 mph    
Max Gust Speed -    
Visibility 7 miles    
Events Rain    
T = Trace of Precipitation, MM = Missing Value Source: NWS Daily Summary

Daily Weather History Graph

Daily Weather History Graph

Search for Another Location

Airport:

Trip Planner

Search our weather history database for the weather conditions in past years. The results will help you decide how hot, cold, wet, or windy it might be!

Date:

Astronomy

Oct. 23, 2012 Rise Set
Actual Time 7:18 AM EDT 6:03 PM EDT
Civil Twilight 6:50 AM EDT 6:31 PM EDT
Nautical Twilight 6:18 AM EDT 7:03 PM EDT
Astronomical Twilight 5:45 AM EDT 7:35 PM EDT
Moon 2:49 PM EDT (10/23) 1:03 AM EDT (10/23)
Length of Visible Light 11h 41m
Length of Day
10h 44m
Waxing Gibbous, 66% of the Moon is Illuminated
Oct 23
Waxing Gibbous
Oct 29
Full
Nov 6
Last Quarter
Nov 13
New
Nov 20
First Quarter

Hourly Weather History & Observations

Time (EDT) Temp. Windchill Dew Point Humidity Pressure Visibility Wind Dir Wind Speed Gust Speed Precip Events Conditions
12:54 AM 46.0 °F - 41.0 °F 83% 30.08 in 10.0 mi Calm Calm - N/A   Clear
1:54 AM 45.0 °F 41.8 °F 39.9 °F 82% 30.08 in 10.0 mi SW 5.8 mph - N/A   Clear
2:54 AM 44.1 °F - 41.0 °F 89% 30.07 in 10.0 mi Calm Calm - N/A   Clear
3:54 AM 43.0 °F - 39.9 °F 89% 30.07 in 10.0 mi Calm Calm - N/A   Clear
4:54 AM 44.1 °F - 39.9 °F 85% 30.08 in 10.0 mi Calm Calm - N/A   Clear
5:54 AM 43.0 °F - 39.9 °F 89% 30.09 in 10.0 mi Calm Calm - N/A   Clear
6:54 AM 44.1 °F - 39.9 °F 85% 30.11 in 10.0 mi Calm Calm - N/A   Clear
8:54 AM 48.9 °F - 44.1 °F 83% 30.13 in 10.0 mi Calm Calm - N/A   Scattered Clouds
9:54 AM 52.0 °F - 46.0 °F 80% 30.14 in 10.0 mi Calm Calm - N/A   Overcast
10:54 AM 52.0 °F - 46.9 °F 83% 30.14 in 8.0 mi Calm Calm - 0.04 in Rain Light Rain
11:54 AM 52.0 °F - 48.9 °F 89% 30.13 in 10.0 mi Calm Calm - 0.03 in Rain Light Rain
12:54 PM 53.1 °F - 48.9 °F 86% 30.12 in 7.0 mi Calm Calm - 0.02 in Rain Light Rain
1:54 PM 53.1 °F - 50.0 °F 89% 30.11 in 8.0 mi Calm Calm - 0.01 in Rain Light Rain
2:54 PM 54.0 °F - 50.0 °F 86% 30.08 in 10.0 mi Calm Calm - 0.01 in Rain Light Rain
3:54 PM 54.0 °F - 50.0 °F 86% 30.08 in 10.0 mi Calm Calm - 0.01 in   Scattered Clouds
4:54 PM 54.0 °F - 50.0 °F 86% 30.09 in 10.0 mi NNW 3.5 mph - 0.00 in Rain Light Rain
5:54 PM 53.1 °F - 51.1 °F 93% 30.09 in 5.0 mi Calm Calm - 0.00 in Rain Light Rain
6:54 PM 52.0 °F - 51.1 °F 97% 30.09 in 2.5 mi Calm Calm - 0.08 in Rain Light Rain
7:20 PM 51.8 °F - 51.8 °F 100% 30.08 in 3.0 mi Calm Calm - 0.04 in Rain Light Rain
7:54 PM 53.1 °F - 51.1 °F 93% 30.09 in 2.5 mi Calm Calm - 0.07 in Rain Light Rain
8:27 PM 51.8 °F - 51.8 °F 100% 30.09 in 2.0 mi Calm Calm - 0.04 in Rain Rain
8:42 PM 53.6 °F - 51.8 °F 94% 30.10 in 3.0 mi Calm Calm - 0.05 in Rain Light Rain
8:54 PM 53.1 °F - 51.1 °F 93% 30.10 in 3.0 mi Calm Calm - 0.06 in Rain Light Rain
9:54 PM 53.1 °F - 51.1 °F 93% 30.10 in 3.0 mi Calm Calm - 0.00 in   Overcast
10:23 PM 53.6 °F - 51.8 °F 94% 30.10 in 3.0 mi Calm Calm - 0.00 in   Overcast
10:40 PM 53.6 °F - 51.8 °F 94% 30.10 in 3.0 mi Calm Calm - 0.00 in   Overcast
10:52 PM 53.6 °F - 51.8 °F 94% 30.10 in 2.5 mi NNE 3.5 mph - 0.00 in   Overcast
10:54 PM 53.1 °F - 51.1 °F 93% 30.11 in 2.5 mi NNE 3.5 mph - 0.00 in   Overcast
11:54 PM 52.0 °F - 51.1 °F 97% 30.11 in 2.5 mi North 4.6 mph - 0.00 in Rain Light Rain